UTMN 2 (RS27S)

Last updated on Thu Oct 30 2025 00:03:10 GMT+0000 (Coordinated Universal Time)

1 57203U 23091AP 25302.54201904 .00015937 00000+0 63798-3 0 9999 2 57203 97.5424 2.2650 0009782 166.3955 193.7548 15.25107257129303
UTC large
Height (km)
Speed (km/s)
/
Latitude / Longitude
Inclination (degrees)
Orbital Period (minutes)
Azimuth
Elevation
Range (km)
Doppler Factor

Next 0 passes for location: London (51.5072 / 0.1276)

Sorry there are no passes over London.